Regional Weather Roundup
Issued by NWS

Home | Current Version | Previous Version | Text Only | Print | Product List | Glossary On
Versions: 1 2 3 4 5 6 7 8 9 10 11 12 13 14 15 16 17 18 19 20 21 22 23 24 25 26 27 28 29 30 31 32 33 34 35 36 37 38 39 40 41 42 43 44 45 46 47 48 49 50
000
ASUS44 KJAN 020103
RWRMS

MISSISSIPPI HOURLY WEATHER ROUNDUP
NATIONAL WEATHER SERVICE JACKSON MS
700 PM CST SUN MAR 01 2015

NOTE: "FAIR: INDICATES FEW OR NO CLOUDS BELOW 12,000 FEET WITH NO
SIGNIFICANT WEATHER AND/OR OBSTRUCTIONS TO VISIBILITY.

MSZ001>002-007>008-010>013-018>021-025>028-034>036-020200-
NORTHWEST MISSISSIPPI

CITY           SKY/WX    TMP DP  RH WIND       PRES   REMARKS
CLARKSDALE     CLOUDY    41  41 100 N8        30.34S
CLEVELAND      DRIZZLE   44  44 100 N9        30.32R
GREENWOOD        N/A    N/A N/A N/A MISG      30.29R
GREENVILLE     CLOUDY    44  43  96 N9        30.31R FOG
OLIVE BRANCH   LGT RAIN  43  43 100 NW6       30.33R FOG
OXFORD         CLOUDY    50  50 100 CALM      30.32R FOG
TUNICA         RAIN      41  37  87 N8        30.36R
$$

MSZ003>006-009-014>017-022>024-029>033-037>039-020200-
NORTHEAST MISSISSIPPI

CITY           SKY/WX    TMP DP  RH WIND       PRES   REMARKS
COLUMBUS AFB   MIX PCPN  54  54 100 SE5       30.29S
CORINTH        RAIN      52  50  93 CALM      30.31R
STARKVILLE     CLOUDY    54  52  94 SE6       30.29F
TUPELO         LGT RAIN  53  50  89 SW5       30.31R FOG
$$

MSZ040-058-020200-
CENTRAL MISSISSIPPI

CITY           SKY/WX    TMP DP  RH WIND       PRES   REMARKS
JACKSON INTL   CLOUDY    60  57  89 E7        30.28R
JACKSON HAWKNS CLOUDY    60  57  89 SE7       30.27S
MERIDIAN KEY   CLOUDY    55  54  96 S7        30.30S
MERIDIAN NAS   CLOUDY    54  53  97 SE12      30.29S
VICKSBURG      FOG       51  50  96 NW5       30.28R VSB 1
$$

MSZ059>079-020200-
SOUTH MISSISSIPPI

CITY           SKY/WX    TMP DP  RH WIND       PRES   REMARKS
BROOKHAVEN     LGT RAIN  59  59 100 E5        30.29F
HATTIESBURG    RAIN      60  58  92 NE6       30.31R FOG
MCCOMB         HVY RAIN  61  60  97 E5        30.28R FOG
NATCHEZ        CLOUDY    63  61  94 W6        30.27R
PINE BELT      CLOUDY    57  54  88 NE7       30.33S
$$

MSZ080>082-020200-
COASTAL MISSISSIPPI

CITY           SKY/WX    TMP DP  RH WIND       PRES   REMARKS
BAY ST LOUIS   FOG       61  57  88 SE5       30.28S VSB 1
BILOXI         CLOUDY    61  61 100 E6        30.29R
PASCAGOULA     CLOUDY    59  57  93 NE6       30.30R FOG
GULFPORT       CLOUDY    61  59  93 E7        30.29R FOG
$$


USA.gov is the U.S. government's official web portal to all federal, state and local government web resources and services.